Location: Alderney
(49.7170°N, 2.2000°W)
Time: 05:27:22
(UTC+00:00)

Amateur Radio Satellites - All Passes

Search period start: 16 December 2017 04:57
Search period end: 17 December 2017 04:57
Location: Alderney, 49.7170°N, 2.2000°W

Satellite Date Start Highest point End Downlink Frequencies (MHz)
Time Altitude Azimuth
BEESAT 2 16 Dec 05:03:23 05:07:28 82° 232° (SW) 05:11:27 435.950
DOVE 4 16 Dec 05:14:13 05:18:49 76° 104° (ESE) 05:23:06 437.250
LilacSat-2 16 Dec 05:20:02 05:22:46 18° 91° (E) 05:25:29 437.200
STARS 16 Dec 05:24:30 05:28:51 61° 258° (WSW) 05:33:12 437.465
FO-29 16 Dec 05:24:48 05:29:55 19° 48° (NE) 05:34:57 435.910
STRAND 1 16 Dec 05:26:59 05:31:09 26° 60° (ENE) 05:35:18 437.568
NUDT-PHONESAT 16 Dec 05:31:19 05:33:33 15° 90° (E) 05:35:46 437.300
XW-2D 16 Dec 05:32:14 05:35:20 23° 93° (E) 05:38:25 145.860 - 145.880
KAITUO 1B 16 Dec 05:37:10 05:39:52 18° 91° (E) 05:42:34 145.475/437.950
M-CUBED/EXP-1 PRIME 16 Dec 05:39:48 05:43:03 20° 308° (NW) 05:46:12 437.505
AO-85 16 Dec 05:44:23 05:49:05 76° 49° (NE) 05:54:08 145.980
XW-2B 16 Dec 05:47:54 05:51:23 31° 96° (E) 05:54:50 145.730 - 145.750
HO-68 16 Dec 05:52:30 05:57:26 19° 87° (E) 06:02:18 435.675
XW-2F 16 Dec 05:58:39 06:02:16 38° 97° (E) 06:05:52 145.980 - 146.000
CUTE-I 16 Dec 06:14:11 06:19:20 47° 99° (E) 06:24:26 437.470
XW-2C 16 Dec 06:15:09 06:19:01 64° 102° (ESE) 06:22:50 145.795 - 145.815
ITAMSAT 1 16 Dec 06:20:21 06:22:29 13° 310° (NW) 06:24:37 435.822/435.867
YUBILEINY 16 Dec 06:30:19 06:33:57 13° 319° (NW) 06:37:36 435.215
AO-7 16 Dec 06:36:01 06:42:06 23° 318° (NW) 06:48:11 .
UWE-3 16 Dec 06:42:53 06:45:09 14° 88° (E) 06:47:26 435.000/436.395/437.385
BEESAT 2 16 Dec 06:43:22 06:44:28 11° 251° (WSW) 06:45:33 435.950
CUBEBUG 2 16 Dec 06:45:17 06:48:46 24° 93° (E) 06:52:18 437.445
SEEDS 16 Dec 06:52:48 06:56:30 28° 94° (E) 07:00:09 437.485
DOVE 4 16 Dec 06:53:09 06:55:52 16° 303° (WNW) 06:58:31 437.250
LilacSat-2 16 Dec 06:53:32 06:57:16 45° 289° (WNW) 07:00:59 437.200
NO-84 16 Dec 07:00:34 07:03:35 55° 145° (SE) 07:06:51 435.350 FM
NUDT-PHONESAT 16 Dec 07:04:01 07:07:42 52° 288° (WNW) 07:11:21 437.300
ZACube-1 16 Dec 07:04:55 07:06:55 13° 87° (E) 07:08:57 437.345
STRAND 1 16 Dec 07:05:00 07:10:01 55° 259° (W) 07:15:03 437.568
FO-29 16 Dec 07:05:53 07:13:36 64° 68° (ENE) 07:21:15 435.910
XW-2D 16 Dec 07:06:03 07:09:35 35° 291° (WNW) 07:13:06 145.860 - 145.880
AAUSAT CUBESAT 2 16 Dec 07:07:47 07:10:44 19° 91° (E) 07:13:41 437.432
O/OREOS (USA 219) 16 Dec 07:10:17 07:12:45 14° 99° (E) 07:15:13 437.305
KAITUO 1B 16 Dec 07:10:25 07:14:03 42° 290° (WNW) 07:17:38 145.475/437.950
XW-2A 16 Dec 07:16:48 07:19:20 19° 93° (E) 07:21:52 145.665 - 145.685
CUTE 1.7 + AOD 2 16 Dec 07:18:15 07:22:35 79° 102° (ESE) 07:26:52 437.475
XW-2B 16 Dec 07:22:13 07:25:28 26° 294° (WNW) 07:28:40 145.730 - 145.750
Oscar 11 16 Dec 07:22:41 07:24:02 11° 86° (E) 07:25:23 .
AO-85 16 Dec 07:25:37 07:29:07 20° 246° (WSW) 07:32:46 145.980
TIGRISAT 16 Dec 07:32:46 07:34:55 14° 57° (ENE) 07:37:04 435.000
XW-2F 16 Dec 07:33:12 07:36:09 21° 296° (WNW) 07:39:07 145.980 - 146.000
UNISAT 6 16 Dec 07:35:57 07:38:32 16° 59° (ENE) 07:41:07 437.425
AO-73 16 Dec 07:36:48 07:40:19 23° 93° (E) 07:43:51 145.935
HO-68 16 Dec 07:38:58 07:46:11 86° 108° (ESE) 07:53:22 435.675
XW-2C 16 Dec 07:50:33 07:52:43 15° 300° (WNW) 07:54:53 145.795 - 145.815
CUTE-I 16 Dec 07:54:34 07:59:13 31° 298° (WNW) 08:03:49 437.470
UWE-3 16 Dec 08:17:47 08:22:05 74° 286° (WNW) 08:26:29 435.000/436.395/437.385
CUBEBUG 2 16 Dec 08:21:32 08:25:32 41° 291° (WNW) 08:29:36 437.445
SEEDS 16 Dec 08:28:22 08:32:13 34° 293° (WNW) 08:36:03 437.485
NO-84 16 Dec 08:37:52 08:40:56 40° 346° (NNW) 08:44:15 435.350 FM
ZACube-1 16 Dec 08:39:23 08:43:45 81° 283° (WNW) 08:48:11 437.345
AAUSAT CUBESAT 2 16 Dec 08:42:25 08:46:29 50° 289° (WNW) 08:50:29 437.432
O/OREOS (USA 219) 16 Dec 08:46:56 08:51:32 79° 298° (WNW) 08:56:07 437.305
XW-2A 16 Dec 08:49:00 08:52:07 33° 291° (WNW) 08:55:14 145.665 - 145.685
FO-29 16 Dec 08:51:56 08:58:58 36° 268° (W) 09:06:02 435.910
CUTE 1.7 + AOD 2 16 Dec 08:55:28 08:57:50 15° 302° (WNW) 09:00:13 437.475
Oscar 11 16 Dec 08:56:26 09:00:50 90° 159° (SSE) 09:05:12 .
TIGRISAT 16 Dec 09:06:45 09:11:02 83° 258° (WSW) 09:15:18 435.000
UNISAT 6 16 Dec 09:10:29 09:14:45 70° 257° (WSW) 09:19:02 437.425
AO-73 16 Dec 09:12:35 09:16:43 44° 290° (WNW) 09:20:55 145.935
Max Valier Satellite 16 Dec 09:20:48 09:23:55 24° 94° (E) 09:27:01 145.860
PRISM 16 Dec 09:21:03 09:25:04 50° 70° (ENE) 09:29:07 437.425
HO-68 16 Dec 09:27:32 09:33:10 26° 309° (NW) 09:38:47 435.675
DELFI C3 16 Dec 09:29:40 09:33:29 44° 99° (E) 09:37:14 145.870
EO-79 16 Dec 09:32:09 09:33:25 11° 55° (NE) 09:34:39 145.935-145.965
EO-88 16 Dec 09:45:00 09:48:19 31° 96° (E) 09:51:36 145.990 - 145.960
AIST 2D 16 Dec 09:50:05 09:53:16 33° 69° (ENE) 09:56:29 435.315
POLYITAN 1 16 Dec 09:53:50 09:56:35 17° 60° (ENE) 09:59:21 437.675
UWE-3 16 Dec 09:56:40 09:57:49 11° 304° (NW) 09:58:59 435.000/436.395/437.385
NO-84 16 Dec 10:15:32 10:18:43 35° 8° (N) 10:22:09 435.350 FM
ZACube-1 16 Dec 10:17:38 10:19:20 12° 304° (WNW) 10:21:02 437.345
QB50P2 16 Dec 10:18:31 10:22:13 31° 66° (ENE) 10:25:56 145.880/145.840
DUCHIFAT 1 16 Dec 10:21:26 10:24:47 24° 64° (ENE) 10:28:08 145.980
nSIGHT-1 16 Dec 10:26:26 10:27:44 12° 136° (SE) 10:29:03 .
O/OREOS (USA 219) 16 Dec 10:29:00 10:31:44 15° 319° (NW) 10:34:28 437.305
Oscar 11 16 Dec 10:34:11 10:36:18 13° 303° (WNW) 10:38:26 .
NANOSAT C BR1 16 Dec 10:48:00 10:52:01 47° 70° (ENE) 10:56:03 145.865
Max Valier Satellite 16 Dec 10:54:26 10:57:45 30° 292° (WNW) 11:01:03 145.860
BUGSAT 1 16 Dec 10:56:47 10:59:08 15° 59° (ENE) 11:01:29 437.445
PRISM 16 Dec 10:57:39 11:00:37 19° 268° (W) 11:03:35 437.425
EO-79 16 Dec 11:04:15 11:08:26 78° 73° (ENE) 11:12:38 145.935-145.965
DELFI C3 16 Dec 11:05:01 11:07:57 20° 297° (WNW) 11:10:52 145.870
ISS 16 Dec 11:12:42 11:15:18 22° 143° (SE) 11:17:56 437.550
ESTCUBE 1 16 Dec 11:17:42 11:21:58 39° 97° (E) 11:26:13 437.505/2401.250
EO-88 16 Dec 11:18:50 11:21:50 24° 294° (WNW) 11:24:50 145.990 - 145.960
AIST 2D 16 Dec 11:23:51 11:26:31 20° 267° (W) 11:29:14 435.315
POLYITAN 1 16 Dec 11:27:48 11:31:57 61° 259° (W) 11:36:07 437.675
Oscar 19 16 Dec 11:28:09 11:32:14 25° 59° (ENE) 11:36:22 437.125/150
SPROUT 16 Dec 11:36:42 11:39:23 16° 90° (E) 11:42:04 437.525
LO-87 16 Dec 11:43:31 11:47:04 80° 285° (WNW) 11:50:37 145.935 - 145.965
AO-91 16 Dec 11:46:08 11:50:02 27° 66° (ENE) 11:53:36 145.960
NO-84 16 Dec 11:52:43 11:56:19 81° 29° (NNE) 12:00:12 435.350 FM
QB50P2 16 Dec 11:54:15 11:57:58 30° 264° (W) 12:01:43 145.880/145.840
DUCHIFAT 1 16 Dec 11:56:20 12:00:15 40° 262° (W) 12:04:13 145.980
nSIGHT-1 16 Dec 12:00:14 12:03:23 55° 155° (SSE) 12:06:33 .
AO-7 16 Dec 12:04:29 12:10:14 21° 40° (NE) 12:15:59 .
Gurwin Techsat 1B 16 Dec 12:22:00 12:27:05 48° 67° (ENE) 12:32:13 435.225
NANOSAT C BR1 16 Dec 12:24:55 12:27:59 20° 268° (W) 12:31:03 145.865
BUGSAT 1 16 Dec 12:30:00 12:34:01 67° 258° (WSW) 12:38:02 437.445
YUBILEINY 16 Dec 12:33:14 12:41:01 33° 62° (ENE) 12:48:42 435.215
RS-15 16 Dec 12:39:55 12:48:06 21° 97° (E) 12:56:12 29.354- 29.394
EO-79 16 Dec 12:42:59 12:44:44 12° 272° (W) 12:46:30 145.935-145.965
VELOX 1 16 Dec 12:43:51 12:48:06 44° 99° (E) 12:52:18 145.980
ITAMSAT 1 16 Dec 12:48:05 12:48:43 10° 47° (NE) 12:49:22 435.822/435.867
ISS 16 Dec 12:48:10 12:51:29 85° 156° (SSE) 12:54:47 437.550
ESTCUBE 1 16 Dec 12:54:44 12:58:39 29° 296° (WNW) 13:02:32 437.505/2401.250
Oscar 19 16 Dec 13:06:08 13:11:11 59° 258° (WSW) 13:16:20 437.125/150
SPROUT 16 Dec 13:11:29 13:15:40 60° 288° (WNW) 13:19:51 437.525
UKube-1 16 Dec 13:15:58 13:18:24 15° 89° (E) 13:20:49 .
M-CUBED/EXP-1 PRIME 16 Dec 13:20:06 13:23:49 26° 56° (NE) 13:27:38 437.505
AO-91 16 Dec 13:21:54 13:26:23 40° 262° (W) 13:30:27 145.960
NO-84 16 Dec 13:30:19 13:33:19 23° 225° (SW) 13:36:29 435.350 FM
DX 1 16 Dec 13:34:16 13:38:14 33° 97° (E) 13:42:10 434.975-435.025
nSIGHT-1 16 Dec 13:36:24 13:39:36 62° 353° (N) 13:42:49 .
AO-7 16 Dec 13:53:21 14:01:31 65° 63° (ENE) 14:09:45 .
50 SAT 16 Dec 13:53:31 13:56:38 54° 101° (E) 13:59:43 437.505
Gurwin Techsat 1B 16 Dec 14:02:41 14:07:15 29° 266° (W) 14:11:52 435.225
VELOX 1 16 Dec 14:20:45 14:24:19 24° 298° (WNW) 14:27:52 145.980
ITAMSAT 1 16 Dec 14:22:01 14:27:02 50° 67° (ENE) 14:32:04 435.822/435.867
ISS 16 Dec 14:24:49 14:28:06 59° 1° (N) 14:31:21 437.550
ITUPSAT 1 16 Dec 14:25:45 14:28:03 13° 87° (E) 14:30:21 437.325
YUBILEINY 16 Dec 14:29:51 14:38:39 72° 266° (W) 14:47:21 435.215
RS-15 16 Dec 14:46:09 14:58:21 71° 121° (ESE) 15:10:23 29.354- 29.394
DOVE 4 16 Dec 14:46:58 14:50:46 21° 60° (ENE) 14:54:28 437.250
UKube-1 16 Dec 14:50:35 14:54:53 69° 288° (WNW) 14:59:10 .
SO-50 16 Dec 14:50:59 14:54:53 30° 118° (ESE) 14:58:50 436.795
M-CUBED/EXP-1 PRIME 16 Dec 14:53:35 14:57:53 50° 255° (WSW) 15:02:24 437.505
MOZHAYETS 4 16 Dec 14:55:34 14:59:51 36° 96° (E) 15:04:07
DX 1 16 Dec 15:10:32 15:14:22 30° 295° (WNW) 15:18:10 434.975-435.025
nSIGHT-1 16 Dec 15:12:46 15:16:00 76° 14° (NNE) 15:19:13 .
50 SAT 16 Dec 15:27:00 15:28:09 12° 299° (WNW) 15:29:17 437.505
BEESAT 16 Dec 15:32:10 15:36:51 52° 100° (E) 15:41:30 436.000
O/OREOS (USA 219) 16 Dec 15:35:35 15:37:32 12° 37° (NE) 15:39:26 437.305
AO-7 16 Dec 15:47:18 15:54:47 36° 264° (W) 16:02:19 .
ISS 16 Dec 16:01:23 16:04:42 76° 200° (SSW) 16:07:59 437.550
ITUPSAT 1 16 Dec 16:01:45 16:06:33 88° 289° (WNW) 16:11:20 437.325
CUTE-I 16 Dec 16:02:16 16:06:14 22° 57° (ENE) 16:10:13 437.470
ITAMSAT 1 16 Dec 16:02:23 16:06:45 27° 266° (W) 16:11:09 435.822/435.867
LilacSat-2 16 Dec 16:06:14 16:08:52 18° 62° (ENE) 16:11:30 437.200
NUDT-PHONESAT 16 Dec 16:14:48 16:16:48 14° 60° (ENE) 16:18:48 437.300
XW-2D 16 Dec 16:17:35 16:20:32 22° 64° (ENE) 16:23:30 145.860 - 145.880
KAITUO 1B 16 Dec 16:21:21 16:23:52 17° 62° (ENE) 16:26:25 145.475/437.950
DOVE 4 16 Dec 16:22:46 16:28:00 70° 258° (WSW) 16:33:03 437.250
CUBESAT XI-V 16 Dec 16:23:33 16:28:17 67° 102° (ESE) 16:32:57 437.345
HO-68 16 Dec 16:26:09 16:31:51 26° 52° (NE) 16:37:32 435.675
YUBILEINY 16 Dec 16:28:37 16:33:47 17° 289° (WNW) 16:38:56 435.215
UKube-1 16 Dec 16:29:10 16:30:06 11° 307° (NW) 16:31:01 .
SO-50 16 Dec 16:30:52 16:35:11 47° 318° (NW) 16:39:36 436.795
KKS-1 16 Dec 16:32:32 16:35:33 18° 91° (E) 16:38:32 437.445
MOZHAYETS 4 16 Dec 16:32:52 16:36:57 31° 295° (WNW) 16:41:01
XW-2B 16 Dec 16:33:05 16:36:24 29° 67° (ENE) 16:39:45 145.730 - 145.750
CUTE 1.7 + AOD 2 16 Dec 16:41:36 16:43:41 14° 57° (ENE) 16:45:47 437.475
XW-2F 16 Dec 16:43:16 16:46:43 35° 69° (ENE) 16:50:13 145.980 - 146.000
nSIGHT-1 16 Dec 16:49:08 16:52:02 31° 213° (SSW) 16:54:56 .
RS-15 16 Dec 16:59:32 17:11:35 54° 328° (NNW) 17:23:22 29.354- 29.394
XW-2C 16 Dec 17:00:06 17:03:49 57° 73° (ENE) 17:07:36 145.795 - 145.815
STARS 16 Dec 17:10:06 17:13:01 17° 91° (E) 17:15:55 437.465
BEESAT 16 Dec 17:10:31 17:14:20 24° 299° (WNW) 17:18:07 436.000
O/OREOS (USA 219) 16 Dec 17:13:28 17:17:57 59° 59° (ENE) 17:22:23 437.305
ISS 16 Dec 17:38:24 17:40:47 19° 219° (SW) 17:43:09 437.550
LilacSat-2 16 Dec 17:39:05 17:42:47 49° 261° (W) 17:46:34 437.200
CUTE-I 16 Dec 17:40:24 17:45:46 74° 256° (WSW) 17:51:10 437.470
ITUPSAT 1 16 Dec 17:41:00 17:43:41 15° 305° (NW) 17:46:22 437.325
UWE-3 16 Dec 17:44:01 17:46:55 19° 61° (ENE) 17:49:50 435.000/436.395/437.385
PCSat 16 Dec 17:44:43 17:49:10 26° 110° (ESE) 17:53:37 145.827
NUDT-PHONESAT 16 Dec 17:46:31 17:50:11 62° 259° (W) 17:53:54 437.300
CUBEBUG 2 16 Dec 17:47:32 17:51:14 32° 67° (ENE) 17:54:57 437.445
SEEDS 16 Dec 17:48:16 17:52:05 34° 67° (ENE) 17:55:56 437.485
XW-2D 16 Dec 17:50:56 17:54:29 38° 263° (W) 17:58:05 145.860 - 145.880
XW-2A 16 Dec 17:52:34 17:54:25 14° 62° (ENE) 17:56:17 145.665 - 145.685
KAITUO 1B 16 Dec 17:53:51 17:57:29 48° 260° (W) 18:01:12 145.475/437.950
AAUSAT CUBESAT 2 16 Dec 18:01:46 18:05:02 22° 63° (ENE) 18:08:18 437.432
CUBESAT XI-V 16 Dec 18:01:50 18:05:10 19° 301° (WNW) 18:08:30 437.345
ZACube-1 16 Dec 18:04:50 18:07:31 17° 60° (ENE) 18:10:15 437.345
DOVE 4 16 Dec 18:05:10 18:06:29 11° 276° (W) 18:07:48 437.250
XW-2B 16 Dec 18:07:17 18:10:33 27° 266° (W) 18:13:51 145.730 - 145.750
KKS-1 16 Dec 18:08:07 18:12:30 59° 289° (WNW) 18:16:50 437.445
HO-68 16 Dec 18:11:37 18:18:50 85° 253° (WSW) 18:26:06 435.675
SO-50 16 Dec 18:13:50 18:16:44 16° 341° (NNW) 18:19:41 436.795
CUTE 1.7 + AOD 2 16 Dec 18:14:36 18:18:53 87° 260° (W) 18:23:12 437.475
XW-2F 16 Dec 18:17:54 18:20:55 22° 267° (W) 18:23:57 145.980 - 146.000
Oscar 11 16 Dec 18:21:03 18:23:45 16° 59° (ENE) 18:26:26 .
XW-2C 16 Dec 18:36:17 18:38:22 14° 271° (W) 18:40:28 145.795 - 145.815
AO-73 16 Dec 18:36:27 18:40:00 29° 66° (ENE) 18:43:37 145.935
STARS 16 Dec 18:45:26 18:49:44 59° 289° (WNW) 18:54:01 437.465
O/OREOS (USA 219) 16 Dec 18:53:46 18:56:55 19° 259° (WSW) 19:00:02 437.305
STRAND 1 16 Dec 19:10:54 19:15:37 36° 97° (E) 19:20:18 437.568
RS-15 16 Dec 19:16:02 19:27:17 39° 1° (N) 19:38:05 29.354- 29.394
UWE-3 16 Dec 19:18:59 19:23:02 53° 260° (W) 19:27:07 435.000/436.395/437.385
XW-2A 16 Dec 19:23:29 19:26:45 48° 260° (W) 19:30:03 145.665 - 145.685
SEEDS 16 Dec 19:24:07 19:27:47 28° 266° (W) 19:31:31 437.485
CUBEBUG 2 16 Dec 19:24:16 19:27:53 28° 265° (W) 19:31:30 437.445
CUTE-I 16 Dec 19:24:51 19:26:45 12° 275° (W) 19:28:40 437.470
PCSat 16 Dec 19:26:49 19:32:11 62° 310° (NW) 19:37:36 145.827
AAUSAT CUBESAT 2 16 Dec 19:36:14 19:40:14 44° 262° (W) 19:44:16 437.432
ZACube-1 16 Dec 19:39:18 19:43:23 60° 260° (W) 19:47:31 437.345
BEESAT 3 16 Dec 19:50:14 19:54:04 46° 123° (ESE) 19:57:55 437.485
CUTE 1.7 + AOD 2 16 Dec 19:54:37 19:55:24 10° 275° (W) 19:56:10 437.475
Oscar 11 16 Dec 19:55:04 19:59:22 71° 258° (WSW) 20:03:43 .
SO-50 16 Dec 19:56:51 19:59:02 13° 6° (N) 20:01:12 436.795
FO-29 16 Dec 19:57:00 20:03:23 37° 92° (E) 20:09:03 435.910
HO-68 16 Dec 20:02:45 20:07:37 19° 273° (W) 20:12:31 435.675
Max Valier Satellite 16 Dec 20:03:47 20:06:38 22° 65° (ENE) 20:09:30 145.860
AO-73 16 Dec 20:12:30 20:16:12 32° 264° (W) 20:19:58 145.935
DELFI C3 16 Dec 20:18:32 20:22:21 45° 71° (ENE) 20:26:12 145.870
EO-88 16 Dec 20:26:35 20:29:39 26° 67° (ENE) 20:32:46 145.990 - 145.960
BEESAT 2 16 Dec 20:35:18 20:39:04 40° 121° (ESE) 20:42:53 435.950
STRAND 1 16 Dec 20:50:09 20:54:48 36° 296° (WNW) 20:59:26 437.568
TIGRISAT 16 Dec 20:54:35 20:57:07 15° 89° (E) 20:59:39 435.000
UNISAT 6 16 Dec 20:58:07 21:01:05 18° 90° (E) 21:04:05 437.425
PCSat 16 Dec 21:12:46 21:16:41 20° 333° (NNW) 21:20:37 145.827
BEESAT 3 16 Dec 21:28:15 21:31:46 29° 323° (NW) 21:35:18 437.485
RS-15 16 Dec 21:30:57 21:42:49 57° 34° (NNE) 21:54:02 29.354- 29.394
Max Valier Satellite 16 Dec 21:36:54 21:40:16 34° 263° (W) 21:43:41 145.860
SO-50 16 Dec 21:37:15 21:41:04 25° 30° (NNE) 21:44:55 436.795
FO-29 16 Dec 21:41:54 21:48:41 50° 296° (WNW) 21:54:39 435.910
AO-85 16 Dec 21:43:12 21:47:00 48° 122° (ESE) 21:51:03 145.980
DELFI C3 16 Dec 21:54:26 21:57:19 19° 269° (W) 22:00:13 145.870
EO-88 16 Dec 22:00:05 22:03:14 27° 265° (W) 22:06:26 145.990 - 145.960
VELOX 1 16 Dec 22:12:27 22:13:36 11° 53° (NE) 22:14:44 145.980
BEESAT 2 16 Dec 22:13:11 22:16:52 32° 321° (NW) 22:20:35 435.950
ESTCUBE 1 16 Dec 22:21:01 22:25:28 59° 71° (ENE) 22:29:57 437.505/2401.250
LO-87 16 Dec 22:23:02 22:26:34 78° 74° (ENE) 22:30:06 145.935 - 145.965
TIGRISAT 16 Dec 22:29:56 22:34:15 69° 287° (WNW) 22:38:38 435.000
PRISM 16 Dec 22:32:52 22:36:48 43° 99° (E) 22:40:41 437.425
SPROUT 16 Dec 22:33:49 22:37:07 22° 63° (ENE) 22:40:25 437.525
UNISAT 6 16 Dec 22:33:52 22:38:09 58° 289° (WNW) 22:42:30 437.425
AIST 2D 16 Dec 22:43:32 22:46:23 22° 94° (E) 22:49:11 435.315
PCSat 16 Dec 23:00:03 23:02:18 12° 360° (N) 23:04:34 145.827
POLYITAN 1 16 Dec 23:08:56 23:11:35 16° 90° (E) 23:14:13 437.675
BEESAT 3 16 Dec 23:09:20 23:10:32 11° 345° (NNW) 23:11:44 437.485
SO-50 16 Dec 23:17:24 23:22:04 84° 230° (SW) 23:26:48 436.795
AO-85 16 Dec 23:24:02 23:27:36 29° 325° (NW) 23:31:25 145.980
FO-29 16 Dec 23:28:49 23:31:59 14° 319° (NW) 23:35:01 435.910
QB50P2 16 Dec 23:34:02 23:37:48 30° 95° (E) 23:41:33 145.880/145.840
DUCHIFAT 1 16 Dec 23:35:47 23:39:08 23° 93° (E) 23:42:28 145.980
RS-15 16 Dec 23:44:04 23:55:41 64° 242° (WSW) 00:06:40 29.354- 29.394
VELOX 1 16 Dec 23:44:47 23:49:12 68° 72° (ENE) 23:53:39 145.980
BEESAT 2 16 Dec 23:54:09 23:55:46 12° 344° (NNW) 23:57:24 435.950
ESTCUBE 1 16 Dec 23:59:31 00:02:39 18° 270° (W) 00:05:49 437.505/2401.250
NANOSAT C BR1 17 Dec 00:03:04 00:07:08 47° 99° (E) 00:11:12 145.865
PRISM 17 Dec 00:08:38 00:11:50 22° 298° (WNW) 00:15:01 437.425
BUGSAT 1 17 Dec 00:08:39 00:10:25 12° 88° (E) 00:12:11 437.445
SPROUT 17 Dec 00:08:40 00:12:45 45° 261° (W) 00:16:51 437.525
TIGRISAT 17 Dec 00:09:24 00:10:09 10° 306° (NW) 00:10:55 435.000
UKube-1 17 Dec 00:14:00 00:17:24 23° 62° (ENE) 00:20:50 .
AIST 2D 17 Dec 00:16:24 00:19:34 30° 291° (WNW) 00:22:43 435.315
EO-79 17 Dec 00:19:51 00:24:06 79° 105° (ESE) 00:28:19 145.935-145.965
50 SAT 17 Dec 00:23:20 00:26:13 32° 69° (ENE) 00:29:06 437.505
DX 1 17 Dec 00:33:32 00:37:46 51° 70° (ENE) 00:42:02 434.975-435.025
Gurwin Techsat 1B 17 Dec 00:35:19 00:37:44 13° 85° (E) 00:40:09 435.225
POLYITAN 1 17 Dec 00:43:34 00:47:45 61° 288° (WNW) 00:51:56 437.675
PCSat 17 Dec 00:44:04 00:47:56 19° 26° (NNE) 00:51:47 145.827
SO-50 17 Dec 00:59:26 01:01:51 14° 250° (WSW) 01:04:18 436.795
BEESAT 17 Dec 01:07:17 01:10:13 17° 56° (NE) 01:13:10 436.000
AO-85 17 Dec 01:07:29 01:09:26 13° 349° (N) 01:11:26 145.980
AO-91 17 Dec 01:07:43 01:10:30 22° 94° (E) 01:13:12 145.960
QB50P2 17 Dec 01:09:49 01:13:34 31° 294° (WNW) 01:17:19 145.880/145.840
DUCHIFAT 1 17 Dec 01:10:59 01:14:57 41° 291° (WNW) 01:18:54 145.980
Oscar 19 17 Dec 01:13:09 01:17:55 35° 96° (E) 01:22:40 437.125/150
VELOX 1 17 Dec 01:23:24 01:26:06 16° 271° (W) 01:28:50 145.980
BEESAT 2 17 Dec 01:34:56 01:35:17 10° 8° (N) 01:35:36 435.950
ITUPSAT 1 17 Dec 01:35:55 01:39:52 27° 62° (ENE) 01:43:50 437.325
NANOSAT C BR1 17 Dec 01:39:22 01:42:34 21° 298° (WNW) 01:45:45 145.865
YUBILEINY 17 Dec 01:41:00 01:48:16 30° 80° (E) 01:55:33 435.215
BUGSAT 1 17 Dec 01:42:13 01:46:15 73° 287° (WNW) 01:50:19 437.445
UKube-1 17 Dec 01:49:00 01:53:10 46° 260° (W) 01:57:22 .
AO-7 17 Dec 01:52:13 01:56:07 14° 82° (E) 02:00:01 .
CUBESAT XI-V 17 Dec 01:55:42 01:58:39 17° 57° (ENE) 02:01:37 437.345
50 SAT 17 Dec 01:56:09 01:58:15 16° 267° (W) 02:00:21 437.505
EO-79 17 Dec 01:57:01 01:59:17 14° 302° (WNW) 02:01:33 145.935-145.965
RS-15 17 Dec 01:59:00 02:05:26 17° 266° (W) 02:11:44 29.354- 29.394
MOZHAYETS 4 17 Dec 02:01:22 02:05:49 57° 71° (ENE) 02:10:19
DX 1 17 Dec 02:10:59 02:14:14 20° 268° (W) 02:17:29 434.975-435.025
Gurwin Techsat 1B 17 Dec 02:13:11 02:18:33 81° 106° (ESE) 02:23:52 435.225
BEESAT 3 17 Dec 02:25:36 02:28:47 22° 33° (NNE) 02:31:56 437.485
PCSat 17 Dec 02:27:05 02:32:28 59° 49° (NE) 02:37:50 145.827
ITAMSAT 1 17 Dec 02:32:25 02:34:16 12° 85° (E) 02:36:08 435.822/435.867
BEESAT 17 Dec 02:42:38 02:47:23 83° 253° (WSW) 02:52:11 436.000
AO-91 17 Dec 02:44:04 02:47:03 26° 294° (WNW) 02:49:55 145.960
AO-85 17 Dec 02:49:24 02:51:43 14° 14° (NNE) 02:54:08 145.980
Oscar 19 17 Dec 02:52:28 02:57:17 39° 295° (WNW) 03:02:04 437.125/150
BEESAT 2 17 Dec 03:11:18 03:14:28 21° 31° (NNE) 03:17:37 435.950
ITUPSAT 1 17 Dec 03:12:55 03:17:29 46° 261° (W) 03:22:05 437.325
CUBESAT XI-V 17 Dec 03:30:45 03:35:27 79° 258° (WSW) 03:40:11 437.345
KKS-1 17 Dec 03:34:17 03:38:07 29° 64° (ENE) 03:41:57 437.445
YUBILEINY 17 Dec 03:35:28 03:44:18 74° 283° (WNW) 03:53:12 435.215
MOZHAYETS 4 17 Dec 03:40:03 03:43:20 19° 270° (W) 03:46:38
AO-7 17 Dec 03:42:22 03:50:41 62° 104° (ESE) 03:58:57 .
Gurwin Techsat 1B 17 Dec 03:54:11 03:57:54 20° 304° (NW) 04:01:36 435.225
M-CUBED/EXP-1 PRIME 17 Dec 04:01:50 04:06:21 63° 107° (ESE) 04:10:34 437.505
BEESAT 3 17 Dec 04:02:46 04:06:42 69° 234° (SW) 04:10:34 437.485
ITAMSAT 1 17 Dec 04:09:25 04:14:38 77° 104° (ESE) 04:19:48 435.822/435.867
STARS 17 Dec 04:10:22 04:14:05 28° 64° (ENE) 04:17:48 437.465
PCSat 17 Dec 04:11:00 04:15:33 28° 249° (WSW) 04:20:05 145.827
DOVE 4 17 Dec 04:18:08 04:21:40 22° 91° (E) 04:25:03 437.250
BEESAT 17 Dec 04:24:15 04:25:55 12° 274° (W) 04:27:34 436.000
AO-85 17 Dec 04:29:16 04:33:27 33° 37° (NE) 04:37:55 145.980
FO-29 17 Dec 04:35:33 04:36:16 10° 36° (NE) 04:36:58 435.910
BEESAT 2 17 Dec 04:48:36 04:52:40 80° 234° (SW) 04:56:40 435.950
